Location: Hains Lake
(37.8540°N, 99.8578°W)
Time: 04:49:12
(UTC+00:00)

Tiros 1 despin weight - Pass Details

Date: 27 April 2021
Orbit: 593 x 642 km, 48.2° (Epoch: 07 May)

Event Time Altitude Azimuth Distance (km) Brightness Sun altitude
Rises 15:28:28 0° 299° (WNW) 2,883 ? 42.1°
Reaches altitude 10° 15:30:52 10° 293° (WNW) 1,967 ? 42.5°
Maximum altitude 15:35:10 45° 221° (SW) 822 ? 43.3°
Drops below altitude 10° 15:39:24 10° 148° (SSE) 1,930 ? 44.1°
Sets 15:41:44 0° 142° (SE) 2,823 ? 44.6°
